Location: Mount Kobau Star Party
(49.1167°N, 119.7333°W)
Time: 14:09:59
(UTC-07:00)

ACS3 Solar Sail - Pass Details

Date: 22 June 2024
Orbit: 992 x 1023 km, 97.4° (Epoch: 12 July)

Event Time Altitude Azimuth Distance (km) Brightness Sun altitude
Exits shadow 00:12:55 - 225° (SW) 3,469 7.4 -16.7°
Reaches altitude 10° 00:15:51 10° 244° (WSW) 2,761 7.0 -16.8°
Maximum altitude 00:19:12 15° 277° (W) 2,421 7.1 -16.9°
Drops below altitude 10° 00:22:34 10° 311° (NW) 2,765 7.9 -16.9°
Sets 00:26:23 0° 334° (NNW) 3,718 9.3 -17.0°
